RH
67 72 89 94 82 75 76 76 78 77 77 77 75 73 76 80 78 77 80 80 80 77 74 69 70 72 72 71 74 77 76 78 82 82 85 86 82 79 79 80 82 67 82
75 69 87 91 92 87 75 79 77 78 78 77 76 77 75 75 77 81 79 78 77 77 75 72 68 72 71 71 72 76 78 80 84 87 87 88 87 82 77 81 75 70 78
72 70 72 90 91 91 91 84 76 74 75 77 76 75 75 75 75 74 73 74 74 73 73 75 67 71 74 74 77 79 77 80 85 87 87 60 65 82 77 84 86 80 75
62 67 66 90 91 92 91 88 91 85 74 75 77 76 74 74 75 76 75 75 74 75 77 77 73 73 73 73 78 78 77 81 87 87 62 60 53 82 78 79 80 74 78
57 57 62 91 91 92 91 91 91 90 90 76 75 78 77 76 76 76 76 77 78 79 80 79 77 74 74 74 76 76 75 83 87 82 54 62 54 71 79 78 78 78 83
43 50 60 86 89 91 89 91 93 90 90 91 83 76 80 77 76 77 79 83 83 84 81 81 79 77 78 77 77 78 79 85 90 60 59 66 61 79 79 80 80 79 85
38 44 46 79 82 87 87 88 90 92 93 91 93 82 76 76 76 79 83 84 84 82 79 81 79 76 76 80 78 81 87 88 64 49 47 66 63 77 79 80 81 83 85
35 39 44 62 74 78 80 85 90 90 91 90 92 92 81 78 78 79 81 84 83 82 80 78 79 79 78 79 80 82 89 94 65 55 47 52 72 76 77 81 84 84 85
33 36 40 44 54 67 70 77 85 87 90 91 90 92 94 86 82 78 81 81 82 83 82 81 80 81 82 83 84 86 91 95 69 49 46 51 82 75 76 82 84 83 83
36 35 37 40 43 46 46 68 77 80 84 88 87 89 91 94 91 87 86 82 83 83 81 81 81 81 83 85 86 87 93 97 69 59 63 66 80 74 77 81 84 81 82
38 38 37 37 40 43 44 52 64 72 75 80 82 84 81 82 74 74 85 93 88 86 84 81 80 84 87 88 89 92 98 63 56 64 68 84 81 74 76 82 86 83 82
41 40 39 39 39 41 40 49 53 53 60 64 71 75 80 85 88 89 92 94 90 90 89 83 81 84 90 59 69 90 68 57 58 72 60 86 82 79 77 83 83 83 85
40 41 40 41 40 40 41 44 50 51 57 58 64 74 84 87 90 92 89 85 74 87 66 68 64 60 56 74 77 66 62 72 70 67 73 92 89 81 78 81 82 81 84
38 39 38 38 40 41 42 42 42 48 52 54 58 70 80 89 90 92 90 78 83 76 72 70 62 64 62 62 63 61 62 78 73 75 77 90 92 90 82 80 81 80 82
35 37 38 37 38 40 43 45 42 42 46 50 59 63 69 78 89 87 87 88 81 81 83 80 75 63 68 68 72 64 62 66 72 70 88 91 90 93 90 78 75 79 81
32 35 36 36 38 38 42 44 43 42 44 48 53 59 69 82 81 82 86 87 85 77 79 83 80 76 80 72 79 74 69 66 66 69 78 78 96 96 87 81 81 86 92
32 33 36 36 38 39 41 44 42 43 43 46 46 54 61 66 74 80 84 86 88 78 80 77 81 78 79 80 80 83 81 76 83 77 81 85 81 99 91 78 78 81 81
31 32 34 34 39 41 40 42 39 43 43 42 44 46 56 58 67 77 81 83 86 88 86 84 80 89 86 91 91 93 90 84 78 79 86 89 89 72 90 88 90 91 88
27 30 33 36 41 42 40 41 41 39 40 41 42 45 52 54 62 71 82 85 83 90 87 85 84 83 99 98 95 94 93 92 90 88 88 92 93 88 85 93 94 94 92
26 28 30 36 43 43 44 42 41 40 41 40 42 46 49 52 56 70 78 80 83 90 92 89 84 94 95 96 94 95 95 94 92 94 94 92 97 96 88 90 95 96 94
28 29 31 38 44 48 49 51 50 49 47 43 43 46 47 50 53 66 76 79 82 89 90 91 93 97 99 95 97 97 96 92 92 93 93 94 95 97 94 92 94 96 95
32 36 37 42 46 52 55 54 52 50 45 45 45 46 49 49 52 57 70 80 81 89 89 93 95 98 96 94 97 95 99 97 93 92 93 94 95 98 99 98 95 95 94
38 44 46 52 56 53 69 60 57 51 48 47 53 52 53 51 53 56 65 75 82 85 92 91 92 95 98 98 95 90 99 97 96 95 93 94 96 98 99 98 97 97 94
45 46 51 57 59 62 64 75 81 77 71 62 58 54 56 52 54 58 62 72 80 84 87 91 90 93 92 97 97 97 92 78 97 99 95 96 95 97 99 99 98 97 95
47 47 52 59 60 60 70 74 84 82 80 74 66 64 57 57 57 58 62 71 80 83 86 88 91 95 94 88 91 99 97 94 90 95 99 99 95 95 99 99 96 97 95
48 48 50 54 59 60 65 76 80 88 88 84 81 74 69 66 67 63 66 72 77 81 88 89 90 92 94 93 88 86 90 92 91 94 95 99 98 98 99 99 99 97 96
Wind_Speed
23 29 38 39 26 3 6 3 5 6 8 7 6 5 6 5 4 3 2 2 1 3 3 1 0 1 1 2 3 4 4 3 4 5 5 6 7 10 9 6 4 12 13
20 23 34 37 31 30 11 7 6 4 6 8 8 7 8 6 5 3 3 2 2 4 5 4 2 2 1 1 1 2 3 4 4 4 5 7 5 8 7 3 3 10 10
22 22 25 35 32 30 29 27 11 5 4 4 4 5 6 6 6 5 4 4 5 5 5 3 0 2 0 1 1 3 3 4 3 2 4 6 8 6 6 7 12 10 11
21 20 23 33 32 30 28 28 28 25 11 5 5 4 2 4 5 6 5 5 4 5 5 3 2 2 1 2 2 3 3 3 5 4 6 7 10 8 6 9 10 12 12
18 19 21 32 33 32 29 30 29 27 25 17 9 6 4 5 6 6 6 6 6 6 5 4 4 2 2 1 0 2 2 2 4 7 10 3 3 9 9 10 11 12 11
18 18 22 32 34 33 31 31 29 29 27 25 22 10 7 7 6 7 7 6 7 6 8 8 6 4 1 2 3 3 2 3 4 8 7 6 5 15 12 11 9 11 11
18 17 21 31 32 32 31 32 31 30 28 26 26 21 13 10 9 8 8 7 8 7 7 8 7 5 3 5 5 5 4 4 7 10 6 5 5 10 13 12 11 11 13
18 19 19 27 32 31 30 31 32 30 30 27 26 26 19 14 12 9 7 5 7 9 10 8 7 6 5 6 6 7 5 5 8 11 6 5 7 10 13 13 11 11 13
20 18 18 20 24 30 30 31 32 31 31 29 28 27 29 17 11 9 7 5 6 8 9 9 5 6 5 6 6 8 5 5 9 7 7 5 7 11 14 13 12 15 15
20 21 20 19 20 20 19 29 30 31 30 30 29 29 31 21 11 9 6 4 4 6 8 8 7 5 5 6 6 8 5 4 8 10 2 3 5 9 13 13 14 14 14
18 21 22 22 19 19 18 19 24 28 28 27 25 28 22 15 14 9 4 2 4 5 6 7 7 6 6 5 3 3 3 5 7 4 2 6 3 7 11 13 14 15 14
23 23 21 23 22 19 14 18 17 17 14 15 15 18 13 16 15 10 7 2 4 4 6 7 6 6 5 7 5 4 5 7 4 4 4 5 3 7 11 11 15 15 16
20 18 22 22 21 21 17 12 8 9 10 11 16 16 14 12 12 12 7 4 4 3 6 5 6 7 8 4 5 5 5 2 3 2 3 4 6 8 11 10 13 15 18
21 21 22 22 20 21 14 12 13 9 10 9 13 16 13 10 12 13 10 9 2 4 6 7 5 6 5 5 7 7 5 4 3 3 3 6 8 9 11 11 11 16 21
19 20 21 21 20 19 17 13 13 13 10 13 11 14 12 11 11 12 14 10 5 4 5 5 7 8 5 5 4 8 7 4 4 3 1 5 9 11 10 10 12 15 22
19 20 20 20 19 20 16 19 13 13 14 12 10 11 12 11 12 12 13 14 10 3 6 5 6 6 5 5 3 5 6 6 5 4 3 5 6 8 8 8 6 7 5
17 19 20 20 20 20 19 16 13 13 13 12 13 15 16 14 14 14 12 13 13 7 8 6 6 7 7 6 5 3 4 5 3 6 5 3 7 6 10 10 3 9 20
16 19 19 17 20 21 18 14 13 12 12 12 12 13 14 16 16 14 11 12 13 15 5 6 5 5 6 3 2 3 3 4 6 5 6 4 5 5 6 12 18 25 8
15 16 17 18 19 21 17 14 14 16 12 12 12 12 18 16 16 14 12 12 14 12 11 6 4 7 2 3 3 2 2 2 4 5 7 5 7 4 4 11 19 22 24
14 15 16 15 18 18 13 13 12 12 12 11 12 12 18 13 17 14 12 14 14 12 14 6 5 3 1 3 4 3 2 2 2 4 5 6 5 5 8 10 9 11 25
14 16 17 18 18 14 13 13 13 13 13 12 12 17 18 16 17 14 11 14 12 12 14 16 4 4 2 3 3 2 2 2 3 3 4 5 5 6 8 9 7 9 12
15 16 16 17 17 14 12 12 12 13 12 12 12 16 16 19 18 15 13 13 14 13 14 12 7 2 2 7 3 2 2 1 1 2 3 4 5 4 7 12 11 13 13
12 14 14 15 15 14 15 12 12 11 11 10 13 12 14 19 17 17 15 13 13 13 11 15 16 10 6 6 6 3 3 4 2 1 3 4 6 4 5 11 13 12 15
10 11 12 13 14 13 15 12 16 12 14 12 13 13 15 18 18 16 16 14 14 11 13 12 13 17 9 8 5 4 1 3 3 2 2 3 5 6 6 4 12 12 12
9 10 11 13 13 14 13 13 11 13 11 11 12 18 17 15 18 17 16 16 14 11 13 15 16 16 11 9 8 4 3 2 2 3 2 1 3 5 5 3 8 11 13
9 10 11 13 13 14 13 12 13 13 14 13 14 13 12 12 12 16 17 15 14 14 14 13 15 15 17 11 10 10 8 6 5 4 3 2 3 3 4 4 2 12 11
Wind_Direction
339 334 337 341 344 356 359 19 345 357 353 352 7 17 39 66 99 117 115 118 41 326 317 4 237 167 112 196 151 126 117 91 75 79 75 86 107 114 119 142 200 110 119
324 333 339 352 2 6 343 358 347 348 2 350 347 356 360 8 14 22 34 16 338 325 334 330 170 162 287 233 215 134 132 112 98 109 103 109 106 128 141 176 92 116 124
344 343 342 353 3 13 16 0 334 351 338 326 330 341 345 345 347 351 349 340 327 323 325 341 337 258 194 43 268 223 177 163 144 159 222 176 149 161 153 104 103 126 130
342 346 343 354 4 11 15 16 13 355 329 298 289 287 288 307 315 321 330 326 318 314 327 318 354 278 299 52 197 220 205 210 211 205 232 242 149 170 155 127 130 137 137
346 349 345 356 5 9 13 13 10 6 4 331 306 290 276 279 292 297 304 306 298 312 325 319 317 307 260 290 64 229 201 206 226 218 245 134 211 157 171 160 152 149 166
352 353 352 359 4 6 9 10 9 7 4 359 340 305 296 284 266 281 290 297 311 319 312 309 317 269 240 261 252 260 230 216 226 231 245 130 271 154 183 176 155 164 143
358 359 359 1 4 4 5 7 6 5 2 358 353 333 311 294 289 288 291 304 312 320 302 302 306 294 276 257 258 256 254 233 249 250 247 137 202 179 186 188 179 159 147
5 4 3 1 1 3 3 5 2 1 1 359 355 351 327 306 300 300 277 304 317 324 324 314 300 287 260 260 261 268 250 238 244 269 258 236 193 188 201 194 185 172 155
8 8 8 3 0 0 359 2 359 358 358 356 357 354 352 314 294 296 311 340 345 336 334 326 298 293 277 261 264 273 262 226 266 256 244 238 156 188 207 201 188 187 174
10 8 5 3 3 360 354 357 357 357 356 355 355 355 347 321 279 274 281 275 355 345 338 343 321 297 282 271 270 274 260 229 254 268 24 321 162 200 219 206 195 196 177
12 10 6 3 3 0 354 354 354 355 354 355 354 352 346 340 309 285 280 2 332 325 325 326 326 299 281 263 261 328 242 241 233 244 247 121 151 213 227 220 202 196 181
7 7 6 2 1 358 353 358 352 350 349 349 352 346 341 334 327 315 299 279 267 285 291 281 285 293 261 257 195 194 243 244 243 265 274 122 206 235 237 234 215 197 176
4 5 4 1 360 360 352 352 350 345 350 344 349 348 341 339 336 325 298 272 305 233 282 241 244 239 244 260 289 273 254 283 259 263 291 20 314 252 247 245 235 207 182
6 4 2 0 359 359 352 353 347 346 343 346 345 348 351 343 335 331 314 313 296 302 294 289 279 289 280 256 276 274 259 256 263 286 2 316 298 286 258 247 251 224 185
8 4 2 359 359 356 354 350 346 347 344 341 336 355 350 339 331 328 319 314 275 276 271 274 282 282 291 268 241 262 268 290 258 282 53 302 283 276 278 242 247 225 200
4 2 360 0 0 354 352 349 345 344 343 338 348 341 350 341 336 331 323 317 304 236 264 255 265 263 276 274 256 255 262 277 290 285 278 288 295 268 214 180 156 196 209
4 1 1 357 359 356 349 347 345 343 339 342 339 345 342 351 333 333 324 320 317 277 252 247 257 259 249 255 278 20 343 300 325 301 302 294 284 232 199 159 135 291 239
360 1 357 357 358 354 349 347 342 343 337 340 334 338 348 351 338 334 323 319 316 321 231 239 231 277 247 229 153 52 22 328 323 316 299 299 261 248 214 145 95 61 126
1 359 358 358 358 352 348 347 342 340 341 333 339 333 346 340 344 337 328 316 320 317 276 220 219 237 186 134 110 70 14 14 332 315 310 308 282 252 163 160 135 122 114
3 1 359 359 357 351 351 347 344 341 343 333 337 343 337 336 339 335 325 321 329 322 314 237 210 115 162 133 112 97 63 18 353 339 321 309 304 240 161 165 147 140 145
1 1 1 358 357 353 353 347 345 342 332 336 329 342 333 335 337 335 327 324 327 310 311 321 233 157 145 137 121 125 108 73 63 358 335 324 309 293 175 177 173 155 158
355 356 355 356 353 352 352 339 336 332 327 326 342 329 332 333 330 332 330 321 325 311 315 308 270 149 154 172 168 148 173 202 109 12 10 345 316 306 215 172 178 167 160
352 351 351 349 347 349 349 339 338 326 332 334 334 329 330 326 326 332 327 324 323 318 312 308 313 198 187 191 221 159 144 218 142 348 4 8 341 326 312 188 164 160 158
347 344 346 344 345 348 347 343 342 334 330 331 323 321 327 323 328 324 325 326 321 316 307 312 293 296 200 188 199 216 296 146 173 186 43 355 350 358 332 318 150 141 145
348 346 346 343 343 345 345 342 332 331 320 319 319 321 320 325 322 322 324 325 318 314 310 305 316 305 253 200 195 153 190 111 257 137 154 196 21 344 342 359 157 136 136
345 349 345 341 339 341 339 335 331 324 321 319 322 317 320 319 318 320 323 320 314 310 310 309 299 302 299 231 200 192 184 172 187 171 130 102 111 333 342 322 115 128 124